Regional Weather Roundup
Issued by NWS

Home | Current Version | Previous Version | Graphics & Text | Print | Product List | Glossary On
Versions: 1 2 3 4 5 6 7 8 9 10 11 12 13 14 15 16 17 18 19 20 21 22 23 24 25 26 27 28 29 30 31 32 33 34 35 36 37 38 39 40 41 42 43 44 45 46 47 48 49 50
526
ASUS45 KSLC 192310
RWRUT

UTAH REGIONAL WEATHER ROUNDUP
NATIONAL WEATHER SERVICE SALT LAKE CITY UT
400 PM MST THU JAN 19 2017

UTZ001>011-023>025-200000-

NORTHERN UTAH

CITY           SKY/WX    TMP DP  RH WIND       PRES   REMARKS
BRIGHAM CITY     N/A     30  28  92 CALM      29.75S VSB 1/2
HILL AFB       SNOW      32  32 100 W5        29.72S VSB 1/2 WCI  27
LOGAN          SNOW      26  25  96 SW3       29.73S VSB 1/2
OGDEN          SNOW      30  30 100 NW6       29.73R VSB 1/4 WCI  24
SALT LAKE CITY LGT SNOW  31  29  92 NW6       29.73S VSB 1   WCI  25
TOOELE VALLEY  LGT SNOW  30  30 100 CALM      29.74S VSB 1
WENDOVER       CLOUDY    27  21  80 CALM      29.75S VSB 3/4
HEBER CITY     LGT SNOW  34  30  86 CALM      29.69S
WEST JORDAN    CLOUDY    35  35 100 SW5       29.73S WCI  31

$$

UTZ011>015-024>027-200000-

CENTRAL/NORTHEAST UTAH

CITY           SKY/WX    TMP DP  RH WIND       PRES   REMARKS
PROVO AIRPORT  LGT SNOW  35  31  85 CALM      29.74S FOG
MOAB/CANYONLAN LGT SNOW  31  31 100 NW7       29.74S FOG     WCI  24
DELTA          CLOUDY    32  32 100 CALM      29.72S
PRICE          LGT SNOW  28  27  96 CALM      29.72S FOG
RICHFIELD      CLOUDY    37  37 100 SW8       29.71  WCI  31
ROOSEVELT      LGT SNOW  18  14  86 CALM      29.82S
VERNAL         LGT SNOW  18  12  79 CALM      29.79S

$$

UTZ013>016-019>022-027-200000-

SOUTHERN UTAH

CITY           SKY/WX    TMP DP  RH WIND       PRES   REMARKS
BRYCE CANYON   SNOW      29  27  92 SE14      29.71S VSB 1/4 WCI  18
CEDAR CITY     CLOUDY    35  31  85 S9        29.70F WCI  28
MILFORD        MIX PCPN  36  33  89 S15       29.70F WCI  27
ST GEORGE      CLOUDY    43  37  81 CALM      29.79F
HANKSVILLE     CLOUDY    32  32 100 MISG      29.77S
KANAB          CLOUDY    36  36 100 SW7       29.81S FOG     WCI  30
BLANDING       CLOUDY    32  32 100 CALM      29.86F

$$

REGIONAL REPORTS     COLORADO/ARIZONA

CITY           SKY/WX    TMP DP  RH WIND       PRES   REMARKS
CRAIG, CO      CLOUDY    29  19  66 CALM      29.72S
GRAND JUNCTION CLOUDY    35  29  78 NW6       29.75R WCI  30
RIFLE, CO      CLOUDY    37  23  56 N3        29.72F
MONTROSE, CO   CLOUDY    39  27  62 W7        29.75S WCI  34
CORTEZ, CO     LGT SNOW  33  33 100 W3        29.80S FOG
COLORADO CITY  LGT SNOW  36  34  93 S5        29.79S WCI  32
PAGE, AZ       CLOUDY    42  31  64 CALM      29.75S
GRAND CANYON   SNOW      32  32 100 SW15      29.79F VSB 1/4 WCI  22
KINGMAN, AZ    CLOUDY    43  35  73 SW21G33   29.82S
FLAGSTAFF, AZ  SNOW      30  29  96 SW14      29.81S VSB 1/4 WCI  19

$$

REGIONAL REPORTS    NEVADA/IDAHO/WYOMING

CITY           SKY/WX    TMP DP  RH WIND       PRES   REMARKS
LAS VEGAS, NV  PTSUNNY   56  33  42 SW15G23   29.73S
ELY, NY        CLOUDY    30  28  92 E8        29.70F WCI  22
ELKO, NV       LGT SNOW  36  28  73 SW14G23   29.69R WCI  27
POCATELLO, ID  CLOUDY    37  29  72 S13       29.67R WCI  29
BURLEY, ID     CLOUDY    38  30  73 S13       29.65S WCI  30
FORT BRIDGER,  LGT SNOW  25  25  99 SW3       29.69R
EVANSTON, WY   LGT SNOW  29  26  89 SW15      29.67R VSB 3/4 WCI  18
ROCK SPRINGS,  CLOUDY    16  13  88 CALM      29.66F
KEMMERER, WY   LGT SNOW  27  23  86 W6        29.66S WCI  20

$$




USA.gov is the U.S. government's official web portal to all federal, state and local government web resources and services.